Regional Weather Roundup
Issued by NWS

Home | Current Version | Previous Version | Graphics & Text | Print | Product List | Glossary On
Versions: 1 2 3 4 5 6 7 8 9 10 11 12 13 14 15 16 17 18 19 20 21 22 23 24 25 26 27 28 29 30 31 32 33 34 35 36 37 38 39 40 41 42 43 44 45 46 47 48 49 50
000
ASUS43 KLOT 060312
RWRIL

ILLINOIS REGIONAL WEATHER ROUNDUP
NATIONAL WEATHER SERVICE CHICAGO/ROMEOVILLE IL
1000 PM CDT SUN JUL 05 2015

NOTE: "FAIR" INDICATES FEW OR NO CLOUDS BELOW 12,000 FEET WITH NO
SIGNIFICANT WEATHER AND/OR OBSTRUCTIONS TO VISIBILITY.

* THESE STATIONS ARE NOT UNDER NWS QUALITY CONTROL. THEY ALSO MAY NOT
  REPORT WEATHER SUCH AS PRECIPITATION OR FOG.

ILZ001-002-007-009-015-016-024-060400-
NORTHWEST ILLINOIS

CITY           SKY/WX    TMP DP  RH WIND       PRES   REMARKS
MOLINE         CLEAR     72  66  81 SE6       29.97S
STERLING*      CLEAR     72  64  78 S3        30.00R
SAVANNA*       CLEAR     68  65  88 S5        29.99R
$$

ILZ003-004-008-010-011-017-018-060400-
NORTH CENTRAL ILLINOIS

CITY           SKY/WX    TMP DP  RH WIND       PRES   REMARKS
ROCKFORD       PTCLDY    71  63  75 S7        30.01S
FREEPORT*      CLEAR     65  63  90 S6        30.01S
ROCHELLE*      CLEAR     67  64  91 SE7       30.02R
DE KALB*       CLEAR     67  61  83 S6        30.03R
PERU*          CLEAR     73  64  74 SE6       30.02S
$$

ILZ005-006-012>014-019>023-060400-
NORTHEAST ILLINOIS

CITY           SKY/WX    TMP DP  RH WIND       PRES   REMARKS
CHICAGO-OHARE  CLEAR     73  61  65 S7        30.02R
CHICAGO-MIDWAY CLEAR     79  61  53 S6        30.02R HX  80
AURORA         CLEAR     70  62  76 SE7       30.02S
LANSING*       CLEAR     71  60  68 SE3       30.03S
JOLIET*        CLEAR     68  65  90 CALM      30.03R
WAUKEGAN       CLEAR     69  60  73 SE6       30.01R
DUPAGE AIRPORT CLEAR     69  62  78 SE5       30.02R
KANKAKEE*      CLEAR     71  64  78 CALM      30.04S
WHEELING       CLEAR     72  60  66 SE3       30.03R
MORRIS*        CLEAR     71  64  78 SE5       30.01R
ROMEOVILLE*    CLEAR     70  62  76 CALM      30.03R
NORTHERLY ISL    N/A     68  64  87 S1          N/A
$$

LMZ740>746-060400-
SOUTHERN LAKE MICHIGAN

STATION/POSITION SKY/WX   TEMP    WIND        PRES    VSBY  WAVE
                          AIR SEA DIR/SP/G                  HT/PER
                          (F)     (DEG/KT/KT) (MB)    (MI)  (FT/S)
HARRISON CRIB              69     170/  6/ 10   N/A
BURNHAM HARBOR             68     140/  2/  3   N/A
CALUMET HARBOR             72     110/  4/  6   N/A
BURNS HARBOR               72     190/  4/  6 1017.6S
MICHIGAN CITY              76     130/  4/  6   N/A
MICHIGAN CITY 6N           70 67  160/  4/  8   N/A           0
ST. JOSEPH                 69 67                N/A           0
$$

ILZ025>027-034>036-040-047-049-050-058-095>099-060400-
WEST-CENTRAL ILLINOIS

CITY           SKY/WX    TMP DP  RH WIND       PRES   REMARKS
QUINCY         CLEAR     73  68  84 SE7       29.98R HAZE
GALESBURG*     CLEAR     71  66  83 SE3       29.99S
MACOMB*        PTCLDY    71  69  93 SE5       30.01R FOG
JACKSONVILLE*  PTCLDY    75  70  83 SE6       30.01S
PITTSFIELD*    PTCLDY    74  69  86 SE5       30.02R HAZE
$$

ILZ028>032-037-038-041>044-048-051>054-059>061-060400-
CENTRAL ILLINOIS

CITY           SKY/WX    TMP DP  RH WIND       PRES   REMARKS
PONTIAC        CLEAR     68  66  94 SE5       30.04R FOG
BLOOMINGTON    CLEAR     71  67  87 S8        30.05R
DECATUR        CLEAR     68  65  90 CALM      30.04R
PEORIA         CLEAR     75  65  70 SE6       30.01R
LACON*         CLEAR     73  65  76 SE8       30.00S
LINCOLN*       CLEAR     72  66  83 S3        30.03R
SPRINGFIELD    PTCLDY    75  66  73 S7        30.02R
TAYLORVILLE    CLEAR     70  64  83 SE6       30.04R
$$

ILZ033-039-045-046-055>057-062-063-060400-
EAST-CENTRAL ILLINOIS

CITY           SKY/WX    TMP DP  RH WIND       PRES   REMARKS
CHAMPAIGN      CLEAR     69  67  93 SE5       30.06R FOG
DANVILLE*      CLEAR     67  65  92 SE3       30.03S FOG
RANTOUL*       CLEAR     73  69  88 CALM      30.05S
MATTOON        CLEAR     71  69  93 CALM      30.05R FOG
PARIS*         CLEAR     71  68  90 SE3       30.06S
$$

ILZ079-100>102-060400-
SOUTHWEST ILLINOIS

CITY           SKY/WX    TMP DP  RH WIND       PRES   REMARKS
ALTON          CLEAR     72 N/A N/A CALM      30.03S
BELLEVILLE     PTCLDY    73  71  95 SE7       30.02R
CAHOKIA*       PTCLDY    77  68  73 SE7       30.02R
SPARTA*        PTCLDY    74  68  79 SE5       30.06R
$$

ILZ064>066-069>071-074>076-080>082-084>086-088>090-092>094-060400-
SOUTH-CENTRAL ILLINOIS

CITY           SKY/WX    TMP DP  RH WIND       PRES   REMARKS
CARBONDALE     CLEAR     72  68  87 CALM      30.05R FOG
CAIRO*         CLEAR     74  73  95 CALM      30.05S FOG
EFFINGHAM*     CLEAR     71  68  89 CALM      30.07R FOG
MARION         CLEAR     72  70  94 CALM      30.06F
MT. VERNON     CLEAR     70  63  78 CALM      30.07R
CENTRALIA*     CLEAR     70  66  89 SE3       30.06R
SALEM*         CLEAR     71  67  87 CALM      30.07R
$$

ILZ067-068-072-073-078-083-087-091-060400-
SOUTHEAST ILLINOIS

CITY           SKY/WX    TMP DP  RH WIND       PRES   REMARKS
LAWRENCEVILLE  PTCLDY    73  69  87 SE6       30.07R
FLORA*         CLEAR     72  71  95 E3        30.06R FOG
FAIRFIELD*     CLEAR     73  71  95 CALM      30.06R FOG
HARRISBURG*    CLEAR     71  71  99 CALM      30.08R FOG
ROBINSON*      PTCLDY    72  70  93 CALM      30.07R FOG
CARMI*         CLEAR     73  66  79 CALM      30.06R
$$

ABBREVIATIONS USED IN REMARKS
   TC - TEMPERATURE IN CELSIUS
  WCI - WIND CHILL INDEX
   HX - HEAT INDEX
  VSB - VISIBILITY
$$




USA.gov is the U.S. government's official web portal to all federal, state and local government web resources and services.